Tracking 25722 objects as of 29-May-2022
HD Live streaming from Space Station
objects crossing your sky now

TITAN 3C TRANSTAGE R/B

Track TITAN 3C TRANSTAGE R/B now!


NORAD ID: 5854
Int'l Code: 1972-010B
Perigee: 35,416.9 km
Apogee: 35,943.8 km
Inclination: 2.9 °
Period: 1,430.3 minutes
Semi major axis: 42051 km
RCS: Unknown
Launch date: March 1, 1972
Source: United States (US)
Launch site: AIR FORCE EASTERN TEST RANGE (AFETR)

Note: This is a ROCKET BODY
aabbcc
Your satellite tracking list
Your tracking list is empty




NASA's NSSDC Master Catalog

Two Line Element Set (TLE):
1 05854U 72010B   22148.40159501 -.00000117  00000-0  00000-0 0  9994
2 05854   2.8990 280.9000 0062643 125.4644 235.2619  1.00677583  9990
Source of the keplerian elements: McCants